#timestamp,LO_Frequency,Hit,StdDev 
1512046815.1,286046999.1,N
1512046835.8,286047000.8,N
1512046855.7,286046999.4,N
1512046875.5,286046999.4,N
1512046895.4,286046996.9,N
1512046915.2,286046999.6,N
1512046935.0,286046998.4,N
1512046935.9,286046998.4,N
1512046955.8,286046998.4,N
1512046975.6,286047000.8,N
1512046995.5,286047000.0,N
1512047015.3,286046998.2,N
1512047035.1,286046998.1,N
1512047055.9,286046998.5,N
1512047075.7,286047000.6,N
1512047095.5,286046998.1,N
1512047115.4,286046999.4,N
1512047135.2,286046999.2,N
1512047155.1,286046996.5,Y
1512047156.0,286046996.5,P
1512047175.8,286046999.0,N
1512047195.6,286047001.2,N
1512047215.5,286047000.2,N
1512047235.3,286046998.5,N
1512047255.1,286046998.6,N
1512047275.9,286046999.4,N
1512047295.7,286046998.9,N
1512047315.6,286046998.3,N
1512047335.4,286047002.4,N
1512047355.2,286047002.5,N
1512047375.1,286046999.8,N
1512047376.0,286046999.8,N
1512047395.8,286047001.9,N
1512047415.6,286047002.2,N
1512047435.5,286047002.1,N
1512047455.3,286047001.8,N
1512047475.2,286047005.6,Y
1512047495.9,286047005.3,P
1512047515.7,286047005.8,N
1512047535.6,286047005.6,N
1512047555.4,286047003.8,N
1512047575.2,286047003.4,N
1512047595.1,286047003.0,N
1512047596.0,286047003.0,N
1512047615.8,286047005.1,N
1512047635.7,286047003.6,N
1512047655.5,286047001.6,N
1512047675.3,286047002.1,N
1512047695.2,286047002.1,N
1512047715.0,286047001.7,N
1512047715.9,286047001.7,N
1512047735.8,286047002.0,N
1512047755.6,286047002.2,N
1512047775.4,286047002.4,N
1512047795.3,286047003.6,N
1512047815.1,286047001.5,N
1512047835.8,286047002.0,N
1512047855.7,286047001.6,N
1512047875.5,286047001.5,N
1512047895.3,286047004.4,N
1512047915.2,286046999.7,N
1512047935.0,286047000.0,N
1512047935.9,286047000.0,N
1512047955.8,286047000.4,N
1512047975.6,286046999.8,N
1512047995.4,286047002.2,N
1512048015.3,286047001.9,N
1512048035.1,286047000.5,N
1512048055.9,286047000.3,N
1512048075.7,286047001.1,N
1512048095.5,286046998.6,N
1512048115.4,286046998.8,N
1512048135.2,286046998.9,N
1512048155.0,286046998.3,N
1512048155.9,286046998.3,N
1512048175.8,286047000.7,N
1512048195.6,286047000.2,N
1512048215.5,286047000.9,N
1512048235.3,286046998.6,N
1512048255.1,286047001.2,N
1512048275.9,286047000.4,N
1512048295.7,286047000.5,N
1512048315.5,286047001.0,N
1512048335.4,286047000.6,N
1512048355.2,286047000.3,N
1512048375.1,286047000.2,N
1512048376.0,286047000.2,N
1512048395.8,286046998.8,N
1512048415.6,286046998.8,N
1512048435.5,286046996.7,N
1512048455.3,286046998.9,N
1512048475.1,286047001.1,N
1512048495.9,286047000.6,N
1512048515.7,286046998.1,N
1512048535.6,286047001.0,N
1512048555.4,286047000.4,N
1512048575.2,286046999.9,N
1512048595.1,286047001.1,N
1512048596.0,286047001.1,N
1512048615.8,286047002.8,N
1512048635.6,286047002.0,N
1512048655.5,286047002.7,N
1512048675.3,286047000.4,N
1512048695.2,286047002.1,N
1512048715.9,286046999.9,N
1512048735.7,286047000.4,N
1512048755.6,286046999.8,N
1512048775.4,286047000.1,N
1512048795.2,286046998.1,N
1512048815.1,286046999.9,N
1512048816.0,286046999.9,N
1512048835.8,286047001.0,N
1512048855.7,286047000.8,N
1512048875.5,286047000.9,N
1512048895.3,286046998.8,N
1512048915.2,286046999.6,N
1512048935.0,286046999.0,N
1512048935.9,286046999.0,N
1512048955.8,286046999.2,N
1512048975.6,286046999.3,N
1512048995.4,286046998.9,N
1512049015.3,286046998.9,N
1512049035.1,286047001.1,N
1512049055.9,286046998.8,N
1512049075.7,286046999.5,N
1512049095.5,286046998.4,N
1512049115.4,286046998.3,N
1512049135.2,286046999.9,N
1512049155.0,286047002.6,N
1512049155.9,286047002.6,N
1512049175.8,286047002.5,N
1512049195.6,286047002.1,N
1512049215.5,286047002.7,N
1512049235.3,286047000.1,N
1512049255.1,286046999.1,N
1512049275.9,286046996.5,N
1512049295.7,286046997.2,N
1512049315.6,286046999.2,N
1512049335.4,286046997.2,N
1512049355.2,286046999.5,N
1512049375.1,286046999.2,N
1512049376.0,286046999.2,N
1512049395.8,286046999.0,N
1512049415.6,286046996.7,N
1512049435.5,286046999.6,N
1512049455.3,286046999.2,N
1512049475.2,286046999.5,N
1512049495.0,286046999.0,N
1512049495.9,286046999.0,N
1512049515.7,286046998.4,N
1512049535.6,286046996.5,N
1512049555.4,286046999.5,N
1512049575.3,286046998.9,N
1512049595.1,286046998.1,N
1512049596.0,286046998.1,N
1512049615.8,286046998.5,N
1512049635.7,286046999.0,N
1512049655.5,286046997.2,N
1512049675.4,286046995.5,N
1512049695.2,286046996.2,N
1512049715.1,286046993.3,Y
1512049716.0,286046993.3,P
1512049735.8,286046997.2,N
1512049755.6,286046996.9,N
1512049775.5,286046999.3,N
1512049795.3,286046998.2,N
1512049815.2,286046999.2,N
1512049835.9,286046998.0,N
1512049855.7,286046995.5,N
1512049875.6,286046996.8,N
1512049895.4,286046997.2,N
1512049915.3,286046997.6,N
1512049935.1,286046995.0,Y
1512049936.0,286046995.0,P
1512049955.8,286046998.1,N
1512049975.7,286046999.6,N
1512049995.5,286046999.6,N
1512050015.3,286046996.9,N
1512050035.2,286046999.0,N
1512050055.0,286046998.4,N
1512050055.9,286046998.4,N
1512050075.8,286046998.8,N
1512050095.6,286047001.2,N
1512050115.4,286046998.8,N
1512050135.3,286046997.0,N
1512050155.1,286046996.5,N
1512050175.9,286046995.4,Y
1512050195.7,286046998.3,P
1512050215.5,286046999.7,P
1512050235.4,286047000.6,N
1512050255.2,286046999.4,N
1512050275.0,286046999.6,N
1512050275.9,286046999.6,N
1512050295.8,286046998.8,N
1512050315.6,286046998.3,N
1512050335.5,286046999.2,N
1512050355.3,286046997.5,Y
1512050375.1,286046999.1,P
1512050395.9,286046999.2,P
